Location: Bukit Lungun
(2.6833°N, 113.9667°E)
Time: 14:32:42
(UTC+00:00)

NOSS 3-2 (C) - Pass Details

Date: 02 March 2021
Orbit: 783 x 1429 km, 63.4° (Epoch: 11 April)

Event Time Altitude Azimuth Distance (km) Brightness Sun altitude
Rises 12:21:50 0° 206° (SSW) 3,322 6.7 -26.5°
Reaches altitude 10° 12:24:18 10° 208° (SSW) 2,357 5.9 -27.1°
Enters shadow 12:29:34 76° 289° (WNW) 805 3.1 -28.4°
